Lid_Strength_Index
9 11 11 11 10 8 9 10 10 9 7 9 10 9 8 7 7 7 7 7 6 6 4 3 2 2 2 2 2 2 2 1 1 1 2 2 2 1 1 0 -0 0 -0 -0
10 12 9 8 9 9 10 11 11 9 6 8 10 10 8 7 7 6 6 7 6 6 5 4 3 2 2 2 2 2 2 2 1 1 1 1 2 1 1 0 -0 0 -0 -0
11 9 7 8 8 10 12 12 11 10 8 8 9 11 10 7 6 6 6 6 6 5 5 5 4 3 2 2 2 2 2 1 1 1 1 1 1 1 1 1 1 0 0 -0
10 8 8 9 9 10 12 9 9 8 11 14 9 14 12 10 9 7 7 7 6 5 5 4 4 3 3 2 1 1 1 1 1 1 1 2 2 3 2 2 1 1 0 0
9 9 9 10 9 8 10 8 9 9 12 13 11 14 12 10 10 9 7 6 6 5 5 5 4 3 3 2 2 1 1 2 1 1 1 1 2 2 1 1 1 1 1 0
9 7 9 9 8 8 7 10 11 12 13 15 13 13 13 12 11 9 7 6 6 5 5 4 4 3 3 3 3 3 2 3 2 1 1 1 2 2 2 2 2 1 1 1
10 9 8 8 10 9 9 14 16 16 16 16 13 13 13 10 9 8 8 7 6 5 5 5 5 4 3 4 2 3 3 2 2 2 1 2 2 2 2 2 2 2 2 1
14 13 10 9 10 11 12 13 15 18 17 16 13 16 13 9 7 7 6 6 5 5 5 5 4 4 4 3 2 2 2 2 1 1 1 1 2 2 2 1 1 2 2 1
13 12 8 8 8 9 12 14 12 14 15 15 15 13 10 9 8 8 7 6 5 5 5 5 4 4 3 3 3 2 2 2 2 1 1 1 1 2 2 2 1 2 2 0
11 13 10 8 9 9 9 10 13 14 17 19 16 15 15 12 10 8 7 6 6 5 5 5 4 4 3 3 2 2 2 2 2 1 1 1 1 2 2 2 1 1 1 0
10 11 10 9 11 11 11 11 12 13 15 16 19 17 10 11 9 9 8 6 6 6 5 5 4 3 3 2 2 2 2 2 2 1 1 1 1 1 1 2 1 1 1 0
9 12 13 12 9 8 10 11 12 14 14 14 15 15 8 8 8 8 7 6 5 5 5 5 4 4 4 3 3 3 2 2 2 1 1 2 1 2 1 1 1 1 1 1
8 12 15 14 12 10 11 11 10 12 14 14 15 14 9 8 8 7 7 6 6 5 5 5 4 4 4 4 4 3 3 3 3 2 2 2 2 2 2 1 1 1 1 1
8 13 14 15 13 12 11 10 10 13 15 15 14 13 12 10 9 8 7 7 6 5 5 5 5 5 4 4 3 4 4 2 2 2 2 2 2 1 1 1 1 1 1 1
10 12 11 11 10 9 10 10 9 11 12 14 13 12 12 10 9 8 7 6 6 6 6 5 5 5 4 3 3 3 3 2 4 3 2 2 2 1 1 2 1 1 1 1
10 12 11 12 9 9 10 9 10 10 10 11 11 12 9 8 7 8 7 6 7 6 6 5 4 4 4 4 3 3 2 2 2 2 3 2 2 2 2 1 1 1 2 1
12 12 12 13 10 10 13 10 10 10 10 10 14 11 8 9 8 8 7 6 6 6 5 5 4 4 4 3 3 3 3 2 2 2 2 2 2 2 2 2 2 2 2 2
11 11 13 13 13 17 11 9 8 10 10 9 9 9 8 8 7 6 6 6 6 5 6 5 4 4 3 3 3 3 2 2 3 3 2 2 2 2 2 2 2 2 2 2
11 11 13 14 15 12 10 9 9 12 12 8 9 8 8 7 7 7 5 5 5 5 5 5 4 4 5 3 3 3 3 2 3 3 2 2 2 2 2 2 2 2 3 3
11 11 12 14 16 17 12 8 7 8 15 8 8 8 8 7 12 9 5 4 4 4 4 4 4 4 4 3 3 3 3 3 3 2 2 2 2 2 2 2 2 2 2 2
12 12 13 13 15 13 9 7 6 14 14 7 7 7 7 9 8 6 5 5 4 4 4 3 3 3 3 3 2 3 3 3 2 2 2 2 1 2 2 2 2 2 2 2
12 13 14 14 16 17 7 8 11 9 8 7 7 6 7 7 6 6 5 5 4 4 4 4 4 4 3 3 3 4 4 2 2 2 2 2 2 1 1 2 2 2 2 3
12 11 12 12 12 8 7 8 6 8 9 8 8 7 7 7 7 6 6 6 4 4 4 3 4 3 3 3 3 3 3 2 2 2 2 2 2 1 2 2 3 3 2 3
10 9 11 10 9 8 7 6 6 6 7 6 6 6 6 7 6 6 5 5 4 4 4 3 3 4 4 3 3 3 2 2 3 3 3 2 2 2 2 3 4 4 3 3
10 9 11 11 10 8 7 7 6 6 5 5 5 5 5 5 6 6 5 5 5 4 3 3 4 4 3 3 3 3 2 2 3 3 3 3 3 2 3 4 6 5 5 5
8 9 11 11 8 8 8 6 5 5 5 4 5 5 4 5 5 5 5 5 5 5 4 4 4 4 3 3 3 3 2 2 3 3 3 3 3 3 3 2 5 9 10 11